TimeEDT,TemperatureF,Dew PointF,Humidity,Sea Level PressureIn,VisibilityMPH,Wind Direction,Wind SpeedMPH,Gust SpeedMPH,PrecipitationIn,Events,Conditions,WindDirDegrees,DateUTC
12:15 AM,63.0,60.4,91,29.79,4.0,Calm,Calm,-,N/A,,Clear,0,2013-06-26 04:15:00
12:35 AM,62.8,60.1,91,29.79,5.0,SE,3.5,-,N/A,,Clear,130,2013-06-26 04:35:00
12:55 AM,63.1,60.6,91,29.78,5.0,Calm,Calm,-,N/A,,Clear,0,2013-06-26 04:55:00
1:15 AM,63.0,60.8,93,29.79,4.0,SSW,4.6,-,N/A,,Scattered Clouds,210,2013-06-26 05:15:00
1:35 AM,63.7,61.2,91,29.78,4.0,SSW,3.5,-,N/A,,Mostly Cloudy,200,2013-06-26 05:35:00
1:55 AM,63.3,61.0,92,29.77,2.5,SSW,4.6,-,N/A,,Overcast,210,2013-06-26 05:55:00
2:15 AM,63.3,61.0,92,29.77,0.5,Calm,Calm,-,N/A,Fog,Fog,0,2013-06-26 06:15:00
2:35 AM,62.8,60.4,92,29.77,3.0,Calm,Calm,-,N/A,,Overcast,0,2013-06-26 06:35:00
2:55 AM,63.0,60.8,93,29.77,0.5,SW,5.8,-,N/A,Fog,Fog,220,2013-06-26 06:55:00
3:15 AM,62.8,60.4,92,29.77,0.5,SSW,3.5,-,N/A,Fog,Fog,200,2013-06-26 07:15:00
3:35 AM,62.8,60.8,93,29.77,0.8,Calm,Calm,-,N/A,,Overcast,0,2013-06-26 07:35:00
3:55 AM,62.6,60.4,93,29.77,0.5,SSW,5.8,-,N/A,Fog,Fog,200,2013-06-26 07:55:00
4:15 AM,62.6,60.6,93,29.77,1.2,Calm,Calm,-,N/A,,Overcast,0,2013-06-26 08:15:00
4:35 AM,62.6,60.6,93,29.77,3.0,South,3.5,-,N/A,,Overcast,190,2013-06-26 08:35:00
4:55 AM,62.8,60.8,93,29.77,5.0,SSW,6.9,-,N/A,,Overcast,200,2013-06-26 08:55:00
5:15 AM,62.8,60.8,93,29.77,5.0,SSW,5.8,-,N/A,,Overcast,210,2013-06-26 09:15:00
5:35 AM,63.0,60.8,93,29.77,7.0,South,4.6,-,N/A,,Overcast,180,2013-06-26 09:35:00
5:55 AM,63.0,60.8,93,29.78,5.0,Calm,Calm,-,N/A,,Overcast,0,2013-06-26 09:55:00
6:15 AM,63.5,61.0,91,29.77,5.0,SSW,3.5,-,N/A,,Overcast,200,2013-06-26 10:15:00
6:35 AM,63.7,61.5,93,29.78,5.0,SSW,4.6,-,N/A,,Overcast,200,2013-06-26 10:35:00
6:55 AM,64.0,61.7,92,29.78,7.0,South,3.5,-,N/A,,Overcast,170,2013-06-26 10:55:00
7:15 AM,64.4,61.7,91,29.79,7.0,Calm,Calm,-,N/A,,Overcast,0,2013-06-26 11:15:00
7:35 AM,64.4,61.9,92,29.80,4.0,South,3.5,-,N/A,,Overcast,190,2013-06-26 11:35:00
7:55 AM,64.8,62.2,92,29.80,5.0,SW,3.5,-,N/A,,Overcast,230,2013-06-26 11:55:00
8:15 AM,65.3,62.6,91,29.80,5.0,Calm,Calm,-,N/A,,Mostly Cloudy,0,2013-06-26 12:15:00
8:35 AM,66.6,63.7,90,29.81,7.0,Calm,Calm,-,N/A,,Mostly Cloudy,0,2013-06-26 12:35:00
8:55 AM,67.8,63.7,87,29.81,10.0,Calm,Calm,-,N/A,,Overcast,0,2013-06-26 12:55:00
9:15 AM,67.8,63.7,87,29.81,10.0,Calm,Calm,-,N/A,,Overcast,0,2013-06-26 13:15:00
9:35 AM,68.0,63.7,86,29.81,10.0,Calm,Calm,-,N/A,,Overcast,0,2013-06-26 13:35:00
9:55 AM,68.4,64.0,86,29.81,10.0,Calm,Calm,-,N/A,,Overcast,0,2013-06-26 13:55:00
10:15 AM,68.7,64.4,86,29.80,10.0,Calm,Calm,-,N/A,,Overcast,0,2013-06-26 14:15:00
10:55 AM,69.4,64.9,86,29.80,7.0,Calm,Calm,-,N/A,,Overcast,0,2013-06-26 14:55:00
11:15 AM,69.3,64.6,85,29.81,10.0,SSW,4.6,-,N/A,,Overcast,210,2013-06-26 15:15:00
11:35 AM,69.1,65.3,88,29.80,7.0,SSW,3.5,-,N/A,,Overcast,200,2013-06-26 15:35:00
11:55 AM,69.3,64.8,86,29.80,10.0,SE,3.5,-,N/A,,Overcast,130,2013-06-26 15:55:00
12:15 PM,69.4,65.3,87,29.81,7.0,Calm,Calm,-,N/A,,Overcast,0,2013-06-26 16:15:00
12:35 PM,70.2,65.1,84,29.80,10.0,SSE,4.6,-,N/A,,Overcast,160,2013-06-26 16:35:00
12:55 PM,70.7,65.3,83,29.81,10.0,SW,5.8,-,N/A,,Mostly Cloudy,220,2013-06-26 16:55:00
1:15 PM,70.0,64.8,83,29.81,10.0,SSW,4.6,-,N/A,,Mostly Cloudy,200,2013-06-26 17:15:00
1:35 PM,69.8,64.4,83,29.81,10.0,SSW,6.9,-,N/A,Rain,Light Rain,200,2013-06-26 17:35:00
1:55 PM,69.6,64.4,83,29.82,10.0,SSW,5.8,-,N/A,Rain,Light Rain,210,2013-06-26 17:55:00
2:15 PM,69.3,64.6,85,29.81,10.0,South,4.6,-,N/A,Rain,Light Rain,190,2013-06-26 18:15:00
2:35 PM,70.0,64.6,83,29.80,10.0,South,5.8,-,N/A,,Overcast,180,2013-06-26 18:35:00
2:55 PM,69.8,64.8,84,29.80,10.0,SSW,4.6,-,N/A,,Overcast,200,2013-06-26 18:55:00
3:15 PM,70.7,65.1,82,29.79,10.0,SSW,4.6,-,N/A,,Mostly Cloudy,210,2013-06-26 19:15:00
3:35 PM,73.8,63.7,71,29.80,10.0,Calm,Calm,-,N/A,,Scattered Clouds,0,2013-06-26 19:35:00
3:55 PM,74.3,64.8,72,29.80,10.0,SW,5.8,-,N/A,,Mostly Cloudy,230,2013-06-26 19:55:00
4:15 PM,75.0,62.4,65,29.79,10.0,Calm,Calm,-,N/A,,Mostly Cloudy,0,2013-06-26 20:15:00
4:35 PM,74.3,60.6,62,29.79,10.0,Calm,Calm,-,N/A,,Mostly Cloudy,0,2013-06-26 20:35:00
4:55 PM,75.2,62.6,65,29.79,10.0,SSE,4.6,-,N/A,,Mostly Cloudy,150,2013-06-26 20:55:00
5:15 PM,74.3,61.9,65,29.79,10.0,South,5.8,-,N/A,,Mostly Cloudy,180,2013-06-26 21:15:00
5:35 PM,73.0,63.0,71,29.80,10.0,SE,5.8,-,N/A,,Overcast,140,2013-06-26 21:35:00
5:55 PM,72.7,62.2,70,29.80,10.0,Calm,Calm,-,N/A,,Overcast,0,2013-06-26 21:55:00
6:15 PM,74.5,63.1,68,29.80,10.0,South,3.5,-,N/A,,Mostly Cloudy,170,2013-06-26 22:15:00
6:35 PM,72.5,61.9,69,29.80,10.0,SSW,6.9,-,N/A,,Overcast,200,2013-06-26 22:35:00
6:55 PM,73.4,63.1,70,29.81,10.0,South,3.5,-,N/A,,Mostly Cloudy,180,2013-06-26 22:55:00
7:15 PM,71.4,62.4,73,29.80,10.0,South,3.5,-,N/A,,Scattered Clouds,180,2013-06-26 23:15:00
7:35 PM,72.0,62.8,73,29.80,10.0,Calm,Calm,-,N/A,,Scattered Clouds,0,2013-06-26 23:35:00
7:55 PM,71.6,62.1,72,29.80,10.0,South,4.6,-,N/A,,Scattered Clouds,180,2013-06-26 23:55:00
8:15 PM,70.2,61.7,74,29.80,10.0,South,3.5,-,N/A,,Clear,180,2013-06-27 00:15:00
8:35 PM,69.6,61.7,76,29.81,10.0,South,4.6,-,N/A,,Clear,190,2013-06-27 00:35:00
8:55 PM,68.2,61.9,80,29.81,10.0,South,4.6,-,N/A,,Clear,190,2013-06-27 00:55:00
9:15 PM,66.7,61.5,83,29.82,10.0,SSW,4.6,-,N/A,,Clear,200,2013-06-27 01:15:00
9:35 PM,66.6,61.5,84,29.83,10.0,SSE,4.6,-,N/A,,Scattered Clouds,160,2013-06-27 01:35:00
9:55 PM,66.6,61.2,83,29.83,10.0,SSE,4.6,-,N/A,,Scattered Clouds,160,2013-06-27 01:55:00
10:15 PM,66.4,61.5,84,29.82,10.0,SSE,6.9,-,N/A,,Scattered Clouds,160,2013-06-27 02:15:00
10:35 PM,66.7,61.3,83,29.82,10.0,South,8.1,-,N/A,,Clear,170,2013-06-27 02:35:00
10:55 PM,66.4,61.2,83,29.81,10.0,SSE,5.8,-,N/A,,Scattered Clouds,160,2013-06-27 02:55:00
11:15 PM,65.5,60.8,85,29.81,10.0,South,4.6,-,N/A,,Scattered Clouds,180,2013-06-27 03:15:00
11:35 PM,66.2,61.7,85,29.80,10.0,SSE,5.8,-,N/A,,Scattered Clouds,160,2013-06-27 03:35:00
11:55 PM,66.4,61.7,85,29.81,10.0,SSW,4.6,-,N/A,,Overcast,200,2013-06-27 03:55:00